Probability
0 0 0 0 0 0 0 0 0 0 0 0 0 0 0 0 0 0 0 0 0 0 0 0 0 0 0 0 0 0 0 0 0 0 0 0 0 0
0 0 0 0 0 0 0 0 0 0 0 0 0 0 0 0 0 0 0 0 0 0 0 0 0 0 0 0 0 0 0 0 0 0 0 0 0 0
0 0 0 0 0 0 0 0 0 0 0 0 0 0 0 0 0 0 0 0 0 0 0 0 0 0 0 0 0 0 0 0 0 0 0 0 0 0
0 0 0 0 0 0 0 0 0 0 0 0 0 0 0 0 0 0 0 0 0 0 0 0 0 0 0 0 0 0 0 0 0 0 0 0 0 0
0 0 0 0 0 0 0 0 0 0 0 0 0 0 0 0 0 0 0 0 0 0 0 0 0 0 0 0 0 0 0 0 0 0 0 0 0 0
0 0 0 0 0 0 0 0 0 0 0 0 0 0 0 0 0 0 0 0 0 0 0 0 0 0 0 0 0 0 0 0 0 0 0 0 0 0
0 0 0 0 0 0 0 0 0 0 0 0 0 0 0 0 0 0 0 0 0 0 0 0 0 0 0 0 0 0 0 0 0 0 0 0 0 0
0 0 0 0 0 0 0 0 0 0 0 0 0 0 0 0 0 0 0 0 0 0 0 0 0 0 0 0 0 0 0 0 0 0 0 0 0 0
0 0 0 0 0 0 0 0 0 0 0 0 0 0 0 0 0 0 0 0 0 0 0 0 0 0 0 0 0 0 0 0 0 0 0 0 0 0
0 0 0 0 0 0 0 0 0 0 0 0 0 0 0 0 0 0 0 0 0 0 0 0 0 0 0 0 0 0 0 0 0 0 0 0 0 0
0 0 0 0 0 0 0 0 0 0 0 0 0 0 0 0 0 0 0 0 0 0 0 0 0 0 0 0 0 0 0 0 0 0 0 0 0 0
0 0 0 0 0 0 0 0 0 0 0 0 0 0 0 0 0 0 0 0 0 0 0 0 0 0 0 0 0 0 0 0 0 0 0 0 0 0
0 0 0 0 0 0 0 0 0 0 0 0 0 0 0 0 0 0 0 0 0 0 0 0 0 0 0 0 0 0 0 0 0 0 0 0 0 0
0 0 0 0 0 0 0 0 0 0 0 0 0 0 0 0 0 0 0 0 0 0 0 0 0 0 0 0 0 0 0 0 0 0 0 0 0 0
0 0 0 0 0 0 0 0 0 0 0 0 0 0 0 0 0 0 0 0 0 0 0 0 0 0 0 0 0 0 0 0 0 0 0 0 0 0
0 0 0 0 0 0 0 0 0 0 0 0 0 0 0 0 0 0 0 0 0 0 0 0 0 0 0 0 0 0 0 0 0 0 0 0 0 0
0 0 0 0 0 0 0 0 0 0 0 0 0 0 0 0 0 0 0 0 0 0 0 0 0 0 0 0 0 0 0 0 0 0 0 0 0 0
0 0 0 0 0 0 0 0 0 0 0 0 0 0 0 0 0 0 0 0 0 0 0 0 0 0 0 0 0 0 0 0 0 0 0 0 0 0
0 0 0 0 0 0 0 0 0 0 0 0 0 0 0 0 0 0 0 0 0 0 0 0 0 0 0 0 0 0 0 0 0 0 0 0 0 0
0 0 0 0 0 0 0 0 0 0 0 0 0 0 0 0 0 0 0 0 0 0 0 0 0 0 0 0 0 0 0 0 0 0 0 0 0 0
0 0 0 0 0 0 0 0 0 0 0 0 0 0 0 0 0 0 0 0 0 0 0 0 0 0 0 0 0 0 0 0 0 0 0 0 0 0
0 0 0 0 0 0 0 0 0 0 0 0 0 0 0 0 0 0 0 0 0 0 0 0 0 0 0 0 0 0 0 0 0 0 0 0 0 0
0 0 0 0 0 0 0 0 0 0 0 0 0 0 0 0 0 0 0 0 0 0 0 0 0 0 0 0 0 0 0 0 0 0 0 0 0 0
Height
5716 5714 5712 5709 5706 5703 5699 5696 5693 5690 5688 5683 5677 5671 5664 5659 5653 5647 5642 5636 5630 5625 5619 5614 5608 5603 5597 5592 5587 5583 5580 5577 5574 5571 5568 5565 5562 5559
5707 5705 5703 5700 5697 5693 5689 5685 5681 5677 5675 5671 5665 5659 5652 5646 5640 5634 5628 5623 5618 5612 5606 5601 5595 5590 5585 5580 5576 5572 5568 5565 5562 5559 5556 5553 5551 5548
5698 5696 5693 5690 5687 5683 5679 5675 5670 5666 5662 5659 5652 5646 5640 5633 5627 5621 5615 5609 5604 5599 5593 5588 5583 5578 5574 5569 5565 5561 5558 5554 5551 5548 5545 5542 5539 5536
5689 5687 5684 5681 5677 5673 5669 5664 5660 5655 5650 5646 5641 5634 5627 5620 5614 5608 5602 5596 5590 5586 5581 5576 5571 5567 5563 5559 5555 5551 5548 5544 5541 5538 5534 5531 5528 5525
5680 5677 5674 5671 5667 5663 5658 5654 5649 5643 5638 5633 5628 5622 5615 5608 5602 5596 5590 5584 5578 5573 5569 5565 5561 5558 5553 5550 5546 5542 5539 5535 5531 5528 5524 5521 5518 5516
5670 5667 5664 5660 5657 5652 5648 5643 5638 5632 5627 5621 5615 5610 5604 5597 5591 5585 5580 5574 5568 5563 5559 5555 5552 5548 5545 5541 5538 5534 5530 5526 5522 5518 5515 5512 5509 5507
5660 5657 5653 5650 5646 5641 5637 5632 5627 5621 5616 5610 5604 5599 5593 5587 5582 5575 5570 5565 5560 5555 5551 5547 5544 5540 5536 5532 5528 5525 5521 5517 5513 5509 5506 5503 5500 5497
5650 5647 5643 5640 5636 5631 5626 5621 5616 5610 5605 5599 5594 5589 5583 5577 5572 5566 5560 5556 5553 5548 5543 5539 5535 5532 5528 5524 5520 5516 5513 5509 5505 5501 5497 5494 5491 5489
5640 5637 5634 5630 5626 5621 5616 5611 5605 5599 5594 5589 5584 5579 5574 5568 5563 5558 5552 5547 5543 5539 5535 5532 5528 5524 5520 5517 5513 5509 5505 5500 5497 5493 5489 5486 5483 5480
5630 5627 5624 5620 5615 5611 5607 5602 5596 5591 5586 5581 5575 5570 5564 5559 5553 5549 5544 5540 5535 5530 5526 5524 5521 5517 5514 5509 5506 5501 5497 5493 5489 5485 5481 5477 5475 5472
5620 5617 5613 5610 5606 5602 5598 5593 5588 5583 5577 5572 5566 5561 5555 5550 5545 5541 5536 5532 5528 5524 5520 5517 5514 5511 5507 5503 5499 5494 5490 5486 5482 5477 5474 5470 5467 5465
5610 5607 5604 5600 5596 5592 5588 5584 5580 5575 5570 5565 5559 5553 5548 5543 5538 5533 5529 5525 5521 5518 5514 5510 5507 5504 5501 5497 5493 5488 5483 5479 5475 5471 5468 5465 5462 5459
5601 5598 5594 5590 5587 5583 5579 5575 5571 5566 5562 5557 5551 5546 5541 5536 5531 5526 5522 5518 5514 5511 5507 5504 5501 5497 5493 5491 5487 5482 5478 5474 5470 5467 5463 5460 5457 5454
5591 5588 5585 5581 5578 5575 5571 5567 5562 5558 5553 5549 5544 5539 5534 5530 5525 5521 5516 5512 5508 5505 5501 5497 5494 5491 5487 5484 5481 5477 5473 5469 5466 5462 5459 5456 5453 5450
5581 5579 5576 5572 5569 5566 5562 5558 5554 5550 5546 5541 5537 5532 5528 5524 5520 5515 5511 5507 5503 5499 5496 5492 5489 5485 5481 5478 5475 5472 5469 5465 5462 5458 5455 5452 5450 5448
5572 5569 5567 5564 5561 5558 5554 5551 5547 5543 5539 5535 5531 5527 5523 5518 5514 5511 5507 5503 5500 5496 5492 5488 5484 5480 5477 5473 5470 5467 5464 5461 5458 5455 5452 5450 5447 5445
5563 5561 5559 5556 5553 5550 5547 5544 5540 5536 5533 5529 5525 5521 5518 5514 5510 5506 5503 5499 5495 5492 5489 5485 5480 5477 5473 5470 5467 5464 5461 5459 5456 5452 5450 5448 5446 5444
5554 5553 5551 5549 5546 5544 5541 5537 5534 5530 5527 5524 5520 5516 5513 5509 5506 5502 5499 5495 5491 5488 5485 5482 5479 5475 5471 5467 5464 5461 5459 5457 5454 5451 5448 5447 5445 5443
5547 5545 5544 5542 5540 5537 5534 5531 5528 5525 5522 5519 5515 5512 5508 5505 5502 5499 5495 5492 5488 5485 5482 5479 5476 5472 5469 5466 5463 5459 5457 5455 5452 5450 5448 5446 5444 5442
5540 5538 5537 5535 5533 5531 5528 5526 5523 5520 5517 5514 5511 5507 5504 5501 5498 5495 5492 5489 5485 5482 5479 5476 5472 5469 5466 5464 5461 5458 5455 5453 5451 5449 5447 5445 5443 5442
5533 5532 5530 5529 5527 5525 5522 5520 5517 5515 5512 5509 5506 5503 5501 5498 5495 5492 5489 5486 5483 5479 5476 5473 5469 5466 5464 5462 5460 5457 5455 5452 5450 5448 5446 5445 5444 5442
5526 5525 5524 5522 5521 5519 5517 5514 5512 5510 5507 5505 5502 5499 5497 5494 5492 5489 5486 5483 5480 5477 5474 5471 5467 5465 5463 5460 5458 5456 5454 5451 5449 5447 5446 5445 5444 5443
5520 5519 5517 5516 5514 5513 5511 5509 5507 5505 5503 5500 5498 5496 5493 5491 5488 5486 5483 5481 5478 5475 5472 5469 5466 5464 5461 5459 5457 5455 5453 5451 5449 5448 5447 5445 5444 5443
Wind_Speed
38 38 39 40 41 43 43 45 45 45 44 46 47 49 50 51 51 52 52 52 51 51 52 52 51 50 48 46 45 44 44 43 42 41 40 41 40 40
38 39 40 41 42 43 44 45 46 47 47 47 49 50 51 52 53 53 52 52 52 52 52 52 50 47 45 44 43 42 41 41 40 40 40 40 40 39
38 39 40 41 43 44 45 46 47 48 48 49 50 51 52 52 52 52 52 52 51 51 50 49 47 44 43 42 41 40 39 39 38 39 39 39 38 38
39 40 41 42 44 44 45 47 48 49 50 50 50 50 51 52 51 50 50 50 49 48 46 45 42 41 40 39 38 37 37 37 37 37 37 36 35 34
40 41 42 43 44 45 46 47 48 49 50 50 50 50 50 49 49 48 48 47 46 44 42 40 39 39 38 37 36 35 36 36 36 35 34 34 34 33
40 42 43 44 44 45 46 47 48 49 50 49 49 48 47 46 46 46 45 44 42 40 39 37 37 37 36 36 35 35 35 34 34 33 33 33 33 32
40 42 43 44 45 46 47 47 48 49 49 48 47 45 45 44 44 44 42 40 38 37 36 35 35 35 34 34 34 33 33 33 33 33 32 32 32 31
40 42 42 43 44 45 46 46 47 47 46 45 44 44 43 43 43 42 40 38 35 34 33 33 33 32 32 31 31 32 32 32 32 32 31 30 30 29
40 41 42 43 43 44 44 45 46 45 44 43 43 43 43 42 42 40 39 38 35 33 32 31 31 30 30 30 30 31 31 31 31 31 30 29 29 28
40 41 42 42 42 43 43 44 43 42 42 42 43 43 42 41 39 38 37 36 34 31 31 30 29 29 29 29 30 31 31 31 31 30 29 28 27 26
39 40 41 41 42 42 42 42 41 41 41 42 42 42 40 38 37 37 35 33 31 30 30 29 27 28 29 29 30 30 30 30 29 28 26 25 24 23
39 39 40 41 41 40 40 39 40 40 40 40 40 39 38 36 35 34 33 31 30 29 28 28 28 28 28 28 28 28 28 27 27 25 24 23 22 20
38 39 39 39 38 38 38 38 39 39 39 39 38 36 35 34 33 32 31 30 29 28 28 28 28 28 28 26 26 26 26 25 24 23 21 20 18 16
38 38 38 37 37 37 37 38 38 38 38 37 35 34 32 31 31 30 29 28 28 28 27 28 27 27 27 25 25 24 23 22 22 20 19 18 16 15
37 37 36 36 36 36 36 37 37 36 36 34 32 31 30 30 29 28 27 27 26 27 26 26 26 26 26 24 23 22 21 20 19 18 17 15 13 11
35 35 34 34 34 34 34 34 34 33 32 30 29 29 28 27 26 26 25 25 24 24 24 25 25 25 24 23 22 20 19 18 17 16 14 13 11 10
33 32 32 32 32 31 31 31 31 29 28 28 28 27 26 25 25 24 24 23 23 23 22 23 23 23 22 21 20 18 17 16 16 15 13 12 10 8
30 29 29 29 29 29 29 28 28 27 26 27 27 26 25 24 24 23 23 22 22 21 20 21 21 21 21 20 18 16 16 15 14 13 11 9 7 6
28 27 27 27 27 27 26 26 26 25 25 25 25 24 23 23 23 22 21 20 20 20 20 20 20 20 19 17 15 15 15 14 13 11 9 7 6 5
26 25 26 26 26 25 25 25 25 24 24 24 24 22 22 22 21 20 20 19 19 19 19 19 19 19 17 15 14 13 13 13 12 10 8 6 5 5
24 24 25 25 24 24 24 24 24 23 23 23 22 21 21 20 19 19 19 19 18 18 18 18 18 16 15 14 13 12 11 12 11 9 7 6 6 5
23 24 24 23 23 24 23 23 23 22 22 21 21 20 19 19 18 17 17 17 17 17 17 17 15 14 14 14 13 11 11 10 9 8 6 5 5 5
23 23 22 22 22 22 22 21 21 21 20 20 19 19 18 17 16 16 16 16 17 17 16 15 14 14 14 14 13 11 10 8 7 6 5 4 4 5
Wind_Direction
287 289 291 293 295 296 297 298 299 299 300 300 300 301 301 301 302 301 301 301 301 301 302 303 302 301 301 299 296 294 293 292 291 290 288 288 288 287
287 289 291 294 296 297 298 299 299 300 301 301 302 302 302 302 302 302 301 300 301 302 302 302 301 300 300 299 298 296 294 293 292 291 290 288 288 288
288 290 293 295 296 297 298 299 300 300 301 303 303 303 303 303 303 302 302 301 301 302 302 302 301 299 299 299 298 297 296 295 294 292 291 290 289 288
288 291 294 295 297 298 299 300 300 301 303 304 304 305 305 304 304 303 303 303 302 302 302 302 301 300 300 300 300 299 299 298 297 295 294 292 291 289
289 292 294 296 297 298 300 301 301 303 304 305 306 305 306 306 306 305 305 305 303 302 301 301 301 300 300 300 300 300 300 299 297 296 294 293 292 291
289 292 295 296 298 299 300 301 303 304 305 306 306 306 307 308 308 307 307 306 305 303 302 301 301 301 300 300 300 300 300 299 299 298 296 295 292 291
291 294 295 297 299 300 301 302 304 305 306 306 306 306 307 308 309 309 309 308 307 305 303 302 303 303 302 301 302 302 301 301 301 300 298 295 293 292
292 294 296 298 300 301 303 304 305 306 306 307 307 307 308 309 310 310 310 310 308 306 304 304 304 304 304 304 304 304 305 304 303 303 300 297 295 293
292 294 296 298 300 301 303 305 306 307 307 307 309 310 310 310 310 311 311 311 309 307 305 306 305 305 305 305 306 307 308 308 308 307 304 300 297 294
292 294 296 298 300 301 303 304 306 307 307 308 309 311 311 311 311 311 311 312 311 309 307 307 306 306 306 307 307 308 308 309 309 308 306 302 298 294
292 295 297 298 300 302 303 305 306 307 308 309 310 311 312 311 312 312 312 312 310 308 309 308 307 307 308 309 309 310 310 311 312 311 309 308 304 298
292 295 297 298 300 301 303 304 306 307 309 310 311 312 312 312 312 313 313 312 312 310 308 307 308 309 309 309 310 311 310 311 314 314 312 309 305 302
292 294 296 298 299 301 302 304 306 307 309 310 311 312 312 312 313 313 313 312 312 312 310 309 310 310 311 311 311 312 312 313 315 316 315 312 308 305
292 294 295 297 298 300 302 304 306 307 309 310 311 312 312 312 313 313 313 314 314 315 314 313 313 313 313 314 314 315 315 317 317 318 318 314 310 308
292 293 295 295 296 299 301 304 306 307 309 311 311 312 312 313 312 312 312 313 314 317 318 317 316 317 317 318 319 319 319 319 319 320 319 318 317 314
291 293 294 294 296 300 302 305 307 309 311 312 313 314 315 315 314 314 314 315 316 317 319 320 321 322 322 322 322 322 324 325 325 325 324 324 323 319
289 291 293 295 298 300 303 306 309 310 312 313 314 315 315 316 316 316 316 316 318 319 321 323 324 326 328 329 328 327 328 330 330 329 326 326 326 326
288 290 292 296 298 301 303 307 309 310 312 314 315 315 314 315 316 317 317 317 320 323 325 327 328 331 332 330 329 331 333 334 336 335 333 332 339 343
287 289 292 296 298 301 303 306 309 310 311 314 315 315 315 316 317 320 320 320 322 325 327 328 329 331 331 330 331 332 335 337 339 338 337 338 345 349
286 288 292 296 298 300 302 306 308 309 311 314 315 316 316 317 319 321 323 323 323 326 327 328 330 332 333 333 334 335 337 339 340 341 343 345 352 3
284 287 291 294 297 299 302 305 308 309 310 313 314 314 316 318 319 321 323 326 327 328 328 329 330 332 335 338 340 340 339 340 342 348 353 3 18 25
283 287 290 292 295 298 301 303 306 308 309 311 313 313 315 317 318 320 324 327 330 330 331 334 336 337 338 340 343 344 341 340 344 356 10 21 27 34
285 288 289 291 294 297 299 301 303 306 308 311 313 313 314 316 317 320 323 326 330 332 333 337 340 342 343 345 347 346 345 347 355 7 22 35 44 50